Volver al catálogo

FENGYUN 1C DEB

ActivoPO
NORAD 29790·DEBRIS·🇨🇳 China

Lanzado May 10, 1999 desde Taiyuan Satellite Launch Center

Loading…

Próximos Pases (próximas 24 horas)

TLE

ActualizadoSource: Space-Track

Época: Sep 14, 2026, 11:35 UTC

1 29790U 99025CG  26257.48311504  .00000413  00000-0  16420-3 0  9994
2 29790  99.1519 271.7569 0077210  96.9663 264.0309 14.32691552 24745

Sigue FENGYUN 1C DEB en tiempo real con AllMySat

Download on the App Store